This is the latest recevied weather packets stored in our database for station/object N5DGC. If no packets are shown the sender has not sent any weather packets the latest 10 day(s).
| Time | Temp. | Humidity | Pressure | Rain* | Wind** | Luminosity | Snow |
|---|---|---|---|---|---|---|---|
| 1777671090 | 14.44° C | 47% | 1235.9 hPa | 0 mm | - | 255 W/m² | - |
| 1777670787 | 14.44° C | 47% | 1236.1 hPa | 0 mm | - | 278 W/m² | - |
| 1777670483 | 14.44° C | 46% | 1236.1 hPa | 0 mm | - | 272 W/m² | - |
| 1777670180 | 14.44° C | 47% | 1236.1 hPa | 0 mm | - | 309 W/m² | - |
| 1777669878 | 15° C | 46% | 1236.2 hPa | 0 mm | - | 241 W/m² | - |
| 1777669574 | 15° C | 45% | 1236.3 hPa | 0 mm | - | 205 W/m² | - |
| 1777669271 | 16.11° C | 42% | 1236.7 hPa | 0 mm | - | 250 W/m² | - |
| 1777668967 | 16.11° C | 43% | 1236.5 hPa | 0 mm | - | 319 W/m² | - |
| 1777668665 | 16.67° C | 42% | 1236.5 hPa | 0 mm | - | 660 W/m² | - |
| 1777668361 | 16.11° C | 43% | 1236.6 hPa | 0 mm | - | 742 W/m² | - |
| 1777668057 | 16.11° C | 43% | 1236.5 hPa | 0 mm | - | 397 W/m² | - |
| 1777667754 | 16.67° C | 43% | 1236.3 hPa | 0 mm | - | 559 W/m² | - |
| 1777667451 | 17.78° C | 40% | 1236.2 hPa | 0 mm | - | 659 W/m² | - |
| 1777667148 | 16.67° C | 42% | 1236.3 hPa | 0 mm | - | 1061 W/m² | - |
| 1777666845 | 17.22° C | 41% | 1236.3 hPa | 0 mm | - | 1000 W/m² | - |
| 1777666542 | 16.67° C | 43% | 1236.3 hPa | 0 mm | - | 987 W/m² | - |
| 1777666238 | 16.67° C | 42% | 1236.3 hPa | 0 mm | - | 979 W/m² | - |
| 1777665936 | 16.11° C | 42% | 1236.6 hPa | 0 mm | - | 969 W/m² | - |
| 1777665633 | 16.67° C | 42% | 1236.5 hPa | 0 mm | - | 979 W/m² | - |
| 1777665330 | 16.67° C | 44% | 1236.6 hPa | 0 mm | - | 1033 W/m² | - |
| 1777665025 | 15.56° C | 44% | 1236.6 hPa | 0 mm | - | 991 W/m² | - |
| 1777664721 | 16.11° C | 43% | 1236.7 hPa | 0 mm | - | 1027 W/m² | - |
| 1777664417 | 15.56° C | 45% | 1236.8 hPa | 0 mm | - | 1039 W/m² | - |
| 1777664115 | 15.56° C | 44% | 1236.6 hPa | 0 mm | - | 404 W/m² | - |
| 1777663814 | 16.67° C | 43% | 1236.8 hPa | 0 mm | - | 341 W/m² | - |
* Rain latest hour (hover to see other rain measurements)
** Current wind speed in m/s (hover to see current wind gust speed)